Flag for Gambia Weather past 2 weeks in Banjul, Gambia

Now
68 °F

Clear.


Feels Like: 68 °F
Forecast: 65 / 86 °F
Wind: 9 mph from East

Location: Banjul / Yundum

Current Time: Jan 28, 2015 at 4:49:07 AM

Latest Report: Jan 28, 2015 at 4:00 AM


Visibility: 10 mi

Pressure: 29.92 "Hg

Humidity: 24%

Dew point: 30 °F

Location of BanjulLocation

Historic Weather in Banjul — Graph

°F

Banjul temperature yesterday

Maximum temperature yesterday: 93 °F (at 4:00 PM)
Minimum temperature yesterday: 66 °F (at 4:00 AM)
Average temperature yesterday: 77 °F

Past Weeks' High & Low Weather Summary

 TemperatureHumidityPressure
High93 °F (Jan 17, 2:00 PM)88% (Jan 14, 10:00 PM)32.52 "Hg (Jan 14, 10:00 PM)
Low59 °F (Jan 25, 6:00 AM)10% (Jan 26, 3:00 PM)29.77 "Hg (Jan 25, 4:00 PM)
Average74 °F46%29.90 "Hg
* Reported Jan 13 4:00 AM — Jan 28 4:00 AM, Banjul, Weather by CustomWeather, © 2014

Note: Actual official high and low records may vary slightly from our data, if they occured in-between our weather recording intervals... More about our weather records

Advertising

Banjul weather history for previous 24 hours

 ConditionsComfort  
Time TempWeatherWind HumidityBarometerVisibility
4:00 AM
Jan 28
68 °FClear.9 mph24%29.92 "Hg10 mi
3:00 AM70 °FClear.9 mph29%29.92 "Hg10 mi
2:00 AM72 °FClear.12 mph22%29.92 "Hg10 mi
1:00 AM68 °FClear.7 mph43%29.92 "Hg10 mi
12:00 AM70 °FClear.8 mph53%29.95 "Hg10 mi
11:00 PM
Jan 27
70 °FClear.7 mph64%29.95 "Hg10 mi
10:00 PM70 °FClear.No wind53%29.95 "Hg10 mi
9:00 PM73 °FClear.5 mph41%29.92 "Hg10 mi
8:00 PM75 °FClear.N/A36%29.89 "Hg10 mi
7:00 PM84 °FSunny.No wind35%29.86 "Hg10 mi
6:00 PM90 °FSunny.No wind18%29.83 "Hg10 mi
5:00 PM91 °FSunny.8 mph17%29.86 "Hg10 mi
4:00 PM93 °FSunny.8 mph21%29.86 "Hg10 mi
3:00 PM91 °FSunny.12 mph16%29.89 "Hg10 mi
2:00 PM91 °FSunny.10 mph15%29.89 "Hg10 mi
1:00 PM86 °FSunny.17 mph15%29.89 "Hg10 mi
12:00 PM82 °FSunny.14 mph14%29.98 "Hg10 mi
11:00 AM79 °FSunny.14 mph26%29.98 "Hg10 mi
10:00 AM77 °FSunny.8 mph13%29.95 "Hg10 mi
9:00 AM72 °FSunny.17 mph16%29.95 "Hg10 mi
8:00 AM70 °FSunny.12 mph21%29.95 "Hg10 mi
7:00 AM70 °FClear.14 mph21%29.92 "Hg10 mi
6:00 AM70 °FClear.13 mph29%29.92 "Hg10 mi
5:00 AM70 °FClear.13 mph29%29.92 "Hg10 mi
4:00 AM66 °FClear.9 mph43%29.92 "Hg10 mi
Weather by CustomWeather, © 2014

See weather overviewHow to use our weather pages